TimePST,TemperatureF,Dew PointF,Humidity,Sea Level PressureIn,VisibilityMPH,Wind Direction,Wind SpeedMPH,Gust SpeedMPH,PrecipitationIn,Events,Conditions,WindDirDegrees,DateUTC
12:53 AM,12.9,6.1,74,30.33,-9999.0,Calm,Calm,-,N/A,,Clear,0,2013-12-12 08:53:00
1:53 AM,10.9,5.0,77,30.33,-9999.0,South,4.6,-,N/A,,Clear,190,2013-12-12 09:53:00
2:53 AM,10.0,3.0,73,30.35,-9999.0,South,3.5,-,N/A,,Clear,190,2013-12-12 10:53:00
3:53 AM,8.1,1.0,73,30.39,-9999.0,SSW,3.5,-,N/A,,Clear,200,2013-12-12 11:53:00
4:53 AM,6.1,-0.9,73,30.41,-9999.0,South,4.6,-,N/A,,Clear,190,2013-12-12 12:53:00
5:53 AM,6.1,-2.0,69,30.43,-9999.0,South,3.5,-,N/A,,Clear,190,2013-12-12 13:53:00
6:53 AM,5.0,-2.0,73,30.46,-9999.0,South,5.8,-,N/A,,Clear,190,2013-12-12 14:53:00
7:53 AM,5.0,-0.9,76,30.48,-9999.0,SSW,3.5,-,N/A,,Clear,200,2013-12-12 15:53:00
8:53 AM,14.0,7.0,74,30.45,-9999.0,South,3.5,-,N/A,,Clear,190,2013-12-12 16:53:00
9:53 AM,25.0,16.0,69,30.40,-9999.0,South,4.6,-,N/A,,Clear,180,2013-12-12 17:53:00
10:53 AM,34.0,19.0,54,30.35,-9999.0,Calm,Calm,-,N/A,,Clear,0,2013-12-12 18:53:00
11:53 AM,41.0,23.0,49,30.30,-9999.0,NNE,8.1,-,N/A,,Clear,30,2013-12-12 19:53:00
12:53 PM,46.9,19.9,34,30.23,-9999.0,Calm,Calm,-,N/A,,Clear,0,2013-12-12 20:53:00
1:53 PM,45.0,21.9,40,30.23,-9999.0,NE,8.1,-,N/A,,Clear,40,2013-12-12 21:53:00
2:53 PM,45.0,21.9,40,30.23,-9999.0,NNE,6.9,-,N/A,,Clear,30,2013-12-12 22:53:00
3:53 PM,36.0,27.0,70,30.29,-9999.0,Calm,Calm,-,N/A,,Clear,0,2013-12-12 23:53:00
4:53 PM,32.0,23.0,69,30.32,-9999.0,Calm,Calm,-,N/A,,Clear,0,2013-12-13 00:53:00
5:53 PM,28.0,19.0,69,30.34,-9999.0,South,6.9,-,N/A,,Clear,190,2013-12-13 01:53:00
6:53 PM,26.1,17.1,69,30.35,-9999.0,SSW,6.9,-,N/A,,Clear,200,2013-12-13 02:53:00
7:53 PM,25.0,16.0,69,30.37,-9999.0,South,3.5,-,N/A,,Clear,190,2013-12-13 03:53:00
8:53 PM,25.0,15.1,66,30.33,-9999.0,Calm,Calm,-,N/A,,Clear,0,2013-12-13 04:53:00
9:53 PM,32.0,10.9,42,30.23,-9999.0,Calm,Calm,-,N/A,,Clear,0,2013-12-13 05:53:00
10:53 PM,26.1,14.0,60,30.24,-9999.0,Calm,Calm,-,N/A,,Clear,0,2013-12-13 06:53:00
11:53 PM,36.0,9.0,33,30.17,-9999.0,SSW,8.1,-,N/A,,Clear,210,2013-12-13 07:53:00